EHI
0 0 0 0 0 0 0 0 0 0 0 0 0 0 0 0 0 0 0 0 0 0 0 0 0 0 0 0 0 0 0 0 0 0 0 0 0 0 0 0 0 0 0 0
0 0 0 0 0 0 0 0 0 0 0 0 0 0 0 0 0 0 0 0 0 0 0 0 0 0 0 0 0 0 0 0 0 0 0 0 0 0 0 0 0 0 0 0
0 0 0 0 0 0 0 0 0 0 0 0 0 0 0 0 0 0 0 0 0 0 0 0 0 0 0 0 0 0 0 0 0 0 0 0 0 0 0 0 0 0 0 0
0 0 0 0 0 0 0 0 0 0 0 0 0 0 0 0 0 0 0 0 0 0 0 0 0 0 0 0 0 0 0 0 0 0 0 0 0 0 0 0 0 0 0 0
0 0 0 0 0 0 0 0 0 0 0 0 0 0 0 0 0 0 0 0 0 0 0 0 0 0 0 0 0 0 0 0 0 0 0 0 0 0 0 0 0 0 0 0
0 0 0 0 0 0 0 0 0 0 0 0 0 0 0 0 0 0 0 0 0 0 0 0 0 0 0 0 0 0 0 0 0 0 0 0 0 0 0 0 0 0 0 0
0 0 0 0 0 0 0 0 0 0 0 0 0 0 0 0 0 0 0 0 0 0 0 0 0 0 0 0 0 0 0 0 0 0 0 0 0 0 0 0 0 0 0 0
0 0 0 0 0 0 0 0 0 0 0 0 0 0 0 0 0 0 0 0 0 0 0 0 0 0 0 0 0 0 0 0 0 0 0 0 0 0 0 0 0 0 0 0
0 0 0 0 0 0 0 0 0 0 0 0 0 0 0 0 0 0 0 0 0 0 0 0 0 0 0 0 0 0 0 0 0 0 0 0 0 0 0 0 0 0 0 0
0 0 0 0 0 0 0 0 0 0 0 0 0 0 0 0 0 0 0 0 0 0 0 0 0 0 0 0 0 0 0 0 0 0 0 0 0 0 0 0 0 0 0 0
0 0 0 0 0 0 0 0 0 0 0 0 0 0 0 0 0 0 0 0 0 0 0 0 0 0 0 0 0 0 0 0 0 0 0 0 0 0 0 0 0 0 0 0
0 0 0 0 0 0 0 0 0 0 0 0 0 0 0 0 0 0 0 0 0 0 0 0 0 0 0 0 0 0 0 0 0 0 0 0 0 0 0 0 0 0 0 0
0 0 0 0 0 0 0 0 0 0 0 0 0 0 0 0 0 0 0 0 0 0 0 0 0 0 0 0 0 0 0 0 0 0 0 0 0 0 0 0 0 0 0 0
0 0 0 0 0 0 0 0 0 0 0 0 0 0 0 0 0 0 0 0 0 0 0 0 0 0 0 0 0 0 0 0 0 0 0 0 0 0 0 0 0 0 0 0
0 0 0 0 0 0 0 0 0 0 0 0 0 0 0 0 0 0 0 0 0 0 0 0 0 0 0 0 0 0 0 0 0 0 0 0 0 0 0 0 0 0 0 0
0 0 0 0 0 0 0 0 0 0 0 0 0 0 0 0 0 0 0 0 0 0 0 0 0 0 0 0 0 0 0 0 0 0 0 0 0 0 0 0 0 0 0 0
0 0 0 0 0 0 0 0 0 0 0 0 0 0 0 0 0 0 0 0 0 0 0 0 0 0 0 0 0 0 0 0 0 0 0 0 0 0 0 0 0 0 0 0
0 0 0 0 0 0 0 0 0 0 0 0 0 0 0 0 0 0 0 0 0 0 0 0 0 0 0 0 0 0 0 0 0 0 0 0 0 0 0 0 0 0 0 0
0 0 0 0 0 0 0 0 0 0 0 0 0 0 0 0 0 0 0 0 0 0 0 0 0 0 0 0 0 0 0 0 0 0 0 0 0 0 0 0 0 0 0 0
0 0 0 0 0 0 0 0 0 0 0 0 0 0 0 0 0 0 0 0 0 0 0 0 0 0 0 0 0 0 0 0 0 0 0 0 0 0 0 0 0 0 0 0
0 0 0 0 0 0 0 0 0 0 0 0 0 0 0 0 0 0 0 0 0 0 0 0 0 0 0 0 0 0 0 0 0 0 0 0 0 0 0 0 0 0 0 0
0 0 0 0 0 0 0 0 0 0 0 0 0 0 0 0 0 0 0 0 0 0 0 0 0 0 0 0 0 0 0 0 0 0 0 0 0 0 0 0 0 0 0 0
0 0 0 0 0 0 0 0 0 0 0 0 0 0 0 0 0 0 0 0 0 0 0 0 0 0 0 0 0 0 0 0 0 0 0 0 0 0 0 0 0 0 0 0
0 0 0 0 0 0 0 0 0 0 0 0 0 0 0 0 0 0 0 0 0 0 0 0 0 0 0 0 0 0 0 0 0 0 0 0 0 0 0 0 0 0 0 0
0 0 0 0 0 0 0 0 0 0 0 0 0 0 0 0 0 0 0 0 0 0 0 0 0 0 0 0 0 0 0 0 0 0 0 0 0 0 0 0 0 0 0 0
0 0 0 0 0 0 0 0 0 0 0 0 0 0 0 0 0 0 0 0 0 0 0 0 0 0 0 0 0 0 0 0 0 0 0 0 0 0 0 0 0 0 0 0
0 0 0 0 0 0 0 0 0 0 0 0 0 0 0 0 0 0 0 0 0 0 0 0 0 0 0 0 0 0 0 0 0 0 0 0 0 0 0 0 0 0 0 0
Wind_Speed
5 5 3 4 5 8 7 8 9 8 8 11 9 9 8 8 8 9 9 9 10 10 9 8 7 7 7 7 6 6 6 5 5 4 3 3 3 3 3 3 3 3 3 3
2 3 4 3 4 7 6 5 6 4 9 8 4 4 6 8 11 11 11 12 11 10 10 10 10 9 8 7 7 6 6 6 5 4 3 3 3 3 3 3 3 2 3 3
3 2 1 4 7 7 5 6 8 9 11 3 5 9 11 12 13 13 13 12 13 13 12 11 11 10 10 9 7 6 6 5 5 4 4 4 3 3 3 3 3 3 3 4
2 1 5 9 3 5 6 5 7 7 6 6 8 6 6 8 13 12 12 12 12 11 10 9 8 8 7 7 7 7 6 5 5 5 4 4 3 4 4 3 3 3 4 4
4 3 6 6 3 4 5 5 6 7 5 2 3 4 1 6 9 12 13 12 11 11 10 9 9 8 8 7 7 7 7 6 6 5 5 4 4 5 3 3 3 4 4 5
4 4 6 8 3 1 3 5 4 5 5 6 7 3 6 6 7 8 7 7 8 8 7 8 8 9 9 8 7 8 8 7 6 6 6 5 5 4 3 3 4 4 5 5
4 4 8 7 2 3 4 7 3 4 6 8 8 7 3 5 6 6 7 7 8 9 9 9 9 10 9 8 9 9 7 5 5 5 5 5 4 3 3 3 3 4 5 6
4 3 8 3 2 5 7 3 2 2 5 7 5 2 3 5 6 7 7 7 9 9 8 7 9 10 9 9 8 6 5 5 5 5 5 4 4 4 3 3 4 5 5 6
7 8 5 2 4 4 3 3 3 3 3 5 4 3 3 4 5 7 8 8 8 9 8 6 8 10 10 9 6 6 6 5 5 5 4 4 4 4 3 3 3 4 4 5
4 7 5 5 5 4 3 4 4 3 3 5 5 4 4 4 5 6 6 7 7 9 9 7 7 8 8 6 7 7 6 5 4 4 4 4 3 4 4 4 4 5 5 6
5 6 5 4 3 3 2 2 2 1 3 5 6 4 5 5 6 6 6 6 7 8 9 8 8 7 6 5 7 6 5 5 4 4 4 4 4 5 6 6 6 6 6 6
6 5 3 5 4 2 2 2 2 1 2 2 5 5 5 5 5 6 6 6 6 7 7 7 7 7 6 6 7 7 5 5 4 4 4 4 4 5 8 10 11 13 13 10
5 2 2 4 3 1 1 1 0 2 3 2 2 4 6 5 5 5 5 6 8 8 7 6 6 6 6 6 7 7 6 5 4 4 4 4 4 4 6 6 8 11 12 13
3 1 1 2 2 3 2 2 2 4 3 3 3 4 5 5 5 5 6 6 6 5 5 6 6 6 5 6 6 6 6 6 5 4 4 5 5 5 5 5 6 6 6 9
2 1 2 1 3 4 3 3 4 4 4 4 3 4 5 6 5 5 4 4 5 5 4 5 5 5 4 6 6 6 6 5 4 4 4 5 5 5 5 6 6 7 6 7
3 3 3 4 4 5 5 5 4 2 2 3 3 3 3 4 4 4 4 5 6 5 4 4 4 4 4 6 6 5 5 7 6 4 4 4 5 5 5 6 6 6 7 7
4 4 4 4 4 4 4 4 3 2 2 3 3 4 5 5 5 4 4 4 4 3 3 3 4 3 3 5 5 4 4 4 5 4 4 5 5 5 5 6 6 7 7 7
4 3 3 2 1 3 4 4 4 4 3 3 5 6 6 6 4 3 3 4 4 3 1 2 2 2 2 3 3 3 3 3 3 4 4 4 5 5 5 6 7 8 7 7
6 5 5 5 4 4 3 3 3 4 4 4 6 5 5 4 4 4 4 5 4 1 2 2 1 1 1 2 2 2 3 3 3 4 4 5 5 5 5 6 6 7 7 6
7 6 7 7 6 5 4 4 4 4 4 4 6 6 5 4 4 5 5 3 1 2 2 1 1 1 1 1 1 2 2 3 4 4 4 4 5 5 5 6 6 6 6 6
7 7 7 7 7 6 5 5 5 5 4 5 5 5 4 3 3 3 4 1 2 1 1 1 0 0 1 1 1 1 2 3 3 4 4 5 5 5 6 6 6 6 6 6
6 6 6 6 6 6 6 5 4 4 4 4 4 4 4 3 2 2 1 1 2 1 0 0 0 1 1 1 0 1 2 3 3 3 4 4 5 5 6 6 6 6 6 6
4 4 4 4 4 4 5 5 5 4 3 2 2 2 2 2 2 2 1 2 1 1 1 1 2 3 2 1 1 2 3 3 4 4 4 5 5 5 6 7 6 6 5 5
3 4 4 3 4 5 5 5 4 2 2 1 1 1 2 1 0 1 2 2 2 2 2 2 4 3 2 1 2 2 3 3 4 4 4 5 5 5 5 5 6 5 5 6
2 2 3 4 4 3 2 3 3 3 3 2 2 1 0 1 1 2 1 2 2 2 2 3 4 4 2 2 3 3 3 4 4 4 4 5 5 5 5 5 5 5 5 5
2 2 2 2 1 1 1 1 1 1 1 1 2 2 1 1 1 1 1 2 3 3 3 3 3 3 3 3 3 4 4 4 4 4 4 5 5 5 5 5 7 5 5 5
3 3 3 3 3 3 2 1 1 2 2 1 2 2 2 2 2 2 2 2 2 3 3 3 3 3 3 4 4 4 4 4 4 4 4 4 5 5 5 6 5 5 4 4
Wind_Direction
230 231 193 211 196 176 184 184 185 224 227 244 221 207 201 182 168 164 170 175 179 181 181 177 177 180 182 184 183 178 177 188 204 210 214 223 237 249 256 260 263 265 273 278
262 233 203 228 230 201 212 198 212 235 254 246 216 160 168 174 172 179 185 186 185 182 179 182 183 183 182 184 182 173 183 198 205 206 215 225 236 245 254 264 273 274 274 279
240 298 81 255 228 200 204 200 184 210 236 201 179 191 192 187 185 190 191 187 185 186 187 188 187 181 184 185 174 175 191 200 201 203 216 227 232 235 248 259 264 271 272 271
162 104 227 243 243 197 200 225 207 226 238 204 211 207 194 182 185 191 189 187 188 186 186 186 180 177 175 166 170 182 194 202 203 204 217 225 225 238 247 248 252 260 266 267
136 191 267 288 248 182 187 251 216 218 237 167 110 81 278 207 194 195 190 185 184 182 178 172 172 169 160 166 175 185 198 206 207 204 211 217 229 242 243 240 254 255 262 267
139 170 230 246 243 183 133 273 242 190 181 150 126 141 248 206 190 193 183 175 168 159 151 164 170 159 162 175 182 198 205 208 206 200 205 217 230 239 233 233 251 265 269 264
163 209 256 255 261 117 159 240 257 183 173 165 177 194 217 160 172 171 166 162 155 154 164 176 164 160 172 180 198 206 201 200 202 203 209 220 228 229 235 246 260 266 271 273
156 193 252 275 139 176 218 265 278 203 184 185 196 158 135 151 154 151 150 148 153 160 169 164 161 164 176 195 204 192 185 193 203 207 213 213 217 238 239 238 257 269 274 283
191 214 242 244 228 246 224 244 251 215 207 182 171 178 167 154 151 155 157 157 157 161 159 160 168 171 184 201 183 173 180 196 207 213 216 213 215 235 245 238 245 261 264 273
261 269 261 259 257 260 238 238 248 213 184 169 172 175 164 157 157 157 156 159 154 152 158 171 178 184 195 185 166 169 187 203 208 215 228 227 223 226 231 237 241 250 256 263
261 279 304 297 254 255 265 270 256 193 173 171 162 165 167 168 170 167 157 155 155 161 170 179 178 189 194 172 162 176 194 207 214 219 227 237 238 231 229 233 225 229 244 246
229 237 224 274 294 289 271 284 260 154 128 147 159 164 154 162 167 159 155 152 157 166 173 177 174 187 189 175 171 177 196 211 215 219 226 232 248 266 246 242 250 242 242 243
238 257 230 276 311 321 272 282 205 135 137 146 153 148 146 148 151 147 149 158 171 178 178 171 171 187 191 178 176 186 201 211 213 217 226 234 239 249 274 279 261 255 251 249
245 212 303 302 308 333 344 352 77 91 95 114 128 127 133 128 132 147 170 181 173 163 163 165 173 197 194 174 179 196 209 217 215 222 228 234 240 244 248 264 282 283 271 260
326 209 204 330 14 17 22 39 62 66 78 80 97 120 134 140 153 170 169 145 135 140 157 163 181 209 186 173 187 202 210 219 220 224 230 237 244 250 254 256 261 271 283 285
354 48 66 55 43 33 41 50 59 61 95 105 107 119 135 138 134 125 122 130 137 161 177 176 203 218 179 181 193 204 217 229 224 226 236 243 247 252 257 259 263 266 269 271
64 50 46 37 29 29 34 38 52 66 92 101 120 122 109 102 97 100 113 131 146 161 168 184 216 214 180 184 191 206 217 231 233 232 238 243 248 253 256 259 263 265 266 264
81 96 103 107 85 48 33 37 48 61 79 103 108 103 105 112 119 119 112 106 97 79 66 223 224 200 189 191 195 207 215 226 228 237 245 250 255 257 260 262 266 268 271 274
53 58 60 63 66 68 48 36 39 49 63 90 101 104 108 114 116 110 100 95 94 79 303 293 246 185 211 221 202 207 226 241 246 247 247 256 261 263 263 265 269 270 271 272
46 44 50 51 52 59 55 43 48 50 51 78 90 88 82 84 102 106 101 99 168 223 255 266 179 182 225 236 209 211 234 247 255 260 257 257 262 268 270 272 274 275 274 272
45 46 47 44 40 39 41 41 51 53 51 69 87 94 92 75 82 101 104 89 301 312 349 53 102 253 265 276 255 232 245 254 258 260 262 264 268 272 274 276 277 275 274 273
33 36 34 36 38 30 24 31 45 56 59 63 72 89 96 89 77 68 99 205 255 301 0 297 263 259 265 295 260 265 265 264 264 265 264 266 269 274 278 280 279 279 278 275
32 29 28 27 32 27 23 28 34 47 56 67 92 112 130 153 157 152 247 268 251 246 237 247 260 264 261 244 244 258 266 269 272 274 273 273 273 274 278 282 282 282 283 283
26 17 14 14 34 41 27 7 12 29 42 32 30 100 131 124 296 256 243 266 266 258 248 256 267 269 264 245 251 262 270 275 278 280 282 282 281 279 278 280 284 287 287 286
21 15 15 25 33 21 352 348 7 15 22 12 355 360 23 185 206 257 281 286 286 286 281 281 278 274 267 260 265 271 274 273 276 280 281 283 283 282 280 280 282 286 288 286
20 14 9 6 340 312 314 336 344 323 328 330 325 326 326 319 308 303 296 296 298 295 288 286 283 277 268 266 267 271 274 276 277 277 279 283 283 282 282 283 284 283 285 286
16 12 7 2 353 344 338 336 321 311 303 285 293 304 313 321 319 304 297 292 288 283 279 278 277 273 270 270 273 274 273 272 273 276 281 280 278 277 280 282 282 283 285 285